Weather History for Stuttgart, AR

Change the Weather History Date:

Wednesday, May 1, 2013

  Actual Average Record
Temperature  
Mean Temperature 68 °F -  
Max Temperature 71 °F 74 °F 91 °F (2002)
Min Temperature 64 °F 56 °F 42 °F (2005)
Cooling Degree Days 2    
Growing Degree Days 18 (Base 50)    
Moisture  
Dew Point 60 °F    
Average Humidity 76    
Maximum Humidity 83    
Minimum Humidity 64    
Precipitation  
Precipitation 0.10 in - - ()
Sea Level Pressure  
Sea Level Pressure 30.00 in    
Wind  
Wind Speed 8 mph (East)    
Max Wind Speed 15 mph    
Max Gust Speed 18 mph    
Visibility 10 miles    
Events      
Averages and records for this station are not official NWS values.
T = Trace of Precipitation, MM = Missing Value Source: NWS Daily Summary

Daily Weather History Graph

Daily Weather History Graph

Search for Another Location

Airport:

Trip Planner

Search our weather history database for the weather conditions in past years. The results will help you decide how hot, cold, wet, or windy it might be!

Date:

Astronomy

May. 01, 2013 Rise Set
Actual Time 6:15 AM CDT 7:51 PM CDT
Civil Twilight 5:48 AM CDT 8:18 PM CDT
Nautical Twilight 5:16 AM CDT 8:50 PM CDT
Astronomical Twilight 4:42 AM CDT 9:24 PM CDT
Moon 1:00 AM CDT (5/1) 11:54 AM CDT (5/1)
Length of Visible Light 14h 29m
Length of Day
13h 35m
Waning Gibbous, 59% of the Moon is Illuminated
May 1
Waning Gibbous
May 2
Last Quarter
May 9
New
May 17
First Quarter
May 24
Full

Hourly Weather History & Observations

Time (CDT) Temp. Dew Point Humidity Pressure Visibility Wind Dir Wind Speed Gust Speed Precip Events Conditions
12:15 AM 68.0 °F 55.4 °F 64% 29.92 in 10.0 mi ESE 6.9 mph - N/A   Clear
12:35 AM 68.0 °F 55.4 °F 64% 29.92 in 10.0 mi ESE 6.9 mph - N/A   Clear
12:55 AM 68.0 °F 57.2 °F 68% 29.93 in 10.0 mi ESE 8.1 mph - N/A   Clear
1:15 AM 68.0 °F 57.2 °F 68% 29.93 in 10.0 mi SE 6.9 mph - N/A   Clear
1:35 AM 66.2 °F 57.2 °F 73% 29.93 in 10.0 mi SE 6.9 mph - N/A   Clear
2:15 AM 66.2 °F 57.2 °F 73% 29.92 in 10.0 mi SE 6.9 mph - N/A   Clear
2:35 AM 66.2 °F 57.2 °F 73% 29.92 in 10.0 mi SE 5.8 mph - N/A   Clear
2:55 AM 66.2 °F 57.2 °F 73% 29.92 in 10.0 mi SE 5.8 mph - N/A   Clear
3:15 AM 66.2 °F 57.2 °F 73% 29.92 in 10.0 mi SE 8.1 mph - N/A   Clear
3:35 AM 66.2 °F 57.2 °F 73% 29.93 in 10.0 mi SE 6.9 mph - N/A   Clear
3:55 AM 66.2 °F 57.2 °F 73% 29.93 in 10.0 mi SE 5.8 mph - N/A   Clear
4:15 AM 66.2 °F 57.2 °F 73% 29.93 in 10.0 mi SE 5.8 mph - N/A   Clear
4:35 AM 66.2 °F 57.2 °F 73% 29.92 in 10.0 mi SE 6.9 mph - N/A   Clear
5:15 AM 66.2 °F 59.0 °F 78% 29.93 in 10.0 mi ESE 6.9 mph - N/A   Clear
5:35 AM 64.4 °F 59.0 °F 83% 29.95 in 10.0 mi ESE 5.8 mph - N/A   Clear
5:55 AM 64.4 °F 59.0 °F 83% 29.94 in 10.0 mi Calm Calm - N/A   Clear
6:15 AM 64.4 °F 59.0 °F 83% 29.96 in 10.0 mi East 6.9 mph - N/A   Clear
6:35 AM 64.4 °F 59.0 °F 83% 29.97 in 10.0 mi East 4.6 mph - N/A   Clear
6:55 AM 64.4 °F 57.2 °F 77% 29.97 in 10.0 mi ENE 5.8 mph - N/A   Clear
7:15 AM 66.2 °F 59.0 °F 78% 29.97 in 10.0 mi NE 4.6 mph - N/A   Clear
7:35 AM 64.4 °F 59.0 °F 83% 29.98 in 10.0 mi ENE 5.8 mph - N/A   Mostly Cloudy
7:55 AM 66.2 °F 60.8 °F 83% 29.99 in 10.0 mi East 5.8 mph - N/A   Overcast
8:15 AM 66.2 °F 60.8 °F 83% 29.99 in 10.0 mi East 8.1 mph - N/A   Overcast
8:35 AM 66.2 °F 60.8 °F 83% 29.99 in 10.0 mi ENE 6.9 mph - N/A   Overcast
8:55 AM 68.0 °F 60.8 °F 78% 29.99 in 10.0 mi East 8.1 mph - N/A   Overcast
9:15 AM 69.8 °F 60.8 °F 73% 30.00 in 10.0 mi East 10.4 mph - N/A   Overcast
9:35 AM 69.8 °F 60.8 °F 73% 30.00 in 10.0 mi East 10.4 mph - N/A   Overcast
9:55 AM 69.8 °F 62.6 °F 78% 30.01 in 10.0 mi SE 8.1 mph - N/A   Overcast
10:15 AM 71.6 °F 62.6 °F 73% 30.02 in 10.0 mi SE 11.5 mph - N/A   Overcast
10:35 AM 69.8 °F 62.6 °F 78% 30.03 in 9.0 mi SE 11.5 mph - 0.04 in   Overcast
10:55 AM 68.0 °F 62.6 °F 83% 30.03 in 9.0 mi East 9.2 mph - 0.07 in   Mostly Cloudy
11:15 AM 68.0 °F 62.6 °F 83% 30.03 in 10.0 mi ENE 10.4 mph - 0.03 in   Overcast
11:35 AM 68.0 °F 62.6 °F 83% 30.03 in 10.0 mi ENE 10.4 mph - 0.03 in   Mostly Cloudy
11:55 AM 69.8 °F 62.6 °F 78% 30.02 in 10.0 mi East 8.1 mph - 0.03 in   Overcast
12:15 PM 69.8 °F 62.6 °F 78% 30.03 in 10.0 mi East 11.5 mph - N/A   Mostly Cloudy
12:35 PM 69.8 °F 62.6 °F 78% 30.03 in 10.0 mi East 11.5 mph - N/A   Overcast
12:55 PM 69.8 °F 62.6 °F 78% 30.03 in 10.0 mi East 11.5 mph - N/A   Overcast
1:15 PM 69.8 °F 62.6 °F 78% 30.03 in 10.0 mi East 11.5 mph - N/A   Overcast
1:35 PM 71.6 °F 62.6 °F 73% 30.03 in 10.0 mi East 11.5 mph - N/A   Overcast
1:55 PM 71.6 °F 62.6 °F 73% 30.03 in 10.0 mi East 15.0 mph - N/A   Overcast
2:15 PM 71.6 °F 62.6 °F 73% 30.03 in 10.0 mi East 12.7 mph - N/A   Overcast
2:35 PM 71.6 °F 62.6 °F 73% 30.03 in 10.0 mi East 12.7 mph - N/A   Mostly Cloudy
2:55 PM 71.6 °F 60.8 °F 69% 30.03 in 10.0 mi East 10.4 mph - N/A   Mostly Cloudy
3:15 PM 71.6 °F 62.6 °F 73% 30.04 in 9.0 mi East 9.2 mph - N/A   Overcast
3:35 PM 69.8 °F 60.8 °F 73% 30.03 in 10.0 mi ESE 13.8 mph 18.4 mph N/A   Overcast
4:15 PM 69.8 °F 62.6 °F 78% 30.02 in 10.0 mi East 9.2 mph - N/A   Mostly Cloudy
4:35 PM 69.8 °F 62.6 °F 78% 30.02 in 10.0 mi East 12.7 mph - N/A   Overcast
4:55 PM 69.8 °F 62.6 °F 78% 30.01 in 10.0 mi ESE 15.0 mph - N/A   Overcast
5:15 PM 69.8 °F 62.6 °F 78% 30.02 in 10.0 mi ESE 13.8 mph 18.4 mph N/A   Mostly Cloudy
5:35 PM 71.6 °F 62.6 °F 73% 30.01 in 10.0 mi ESE 10.4 mph - N/A   Mostly Cloudy
5:55 PM 71.6 °F 62.6 °F 73% 30.02 in 10.0 mi ESE 11.5 mph - N/A   Mostly Cloudy
6:15 PM 71.6 °F 60.8 °F 69% 30.02 in 10.0 mi ESE 10.4 mph - N/A   Overcast
6:35 PM 71.6 °F 60.8 °F 69% 30.02 in 10.0 mi East 9.2 mph - N/A   Overcast
6:55 PM 69.8 °F 60.8 °F 73% 30.03 in 10.0 mi East 11.5 mph - N/A   Overcast
7:35 PM 69.8 °F 60.8 °F 73% 30.03 in 10.0 mi East 10.4 mph - N/A   Overcast
7:55 PM 69.8 °F 60.8 °F 73% 30.04 in 10.0 mi ESE 10.4 mph - N/A   Overcast
8:35 PM 68.0 °F 60.8 °F 78% 30.05 in 10.0 mi East 6.9 mph - N/A   Overcast
8:55 PM 68.0 °F 60.8 °F 78% 30.05 in 10.0 mi East 5.8 mph - N/A   Overcast
9:35 PM 68.0 °F 60.8 °F 78% 30.05 in 10.0 mi East 4.6 mph - N/A   Overcast
9:55 PM 66.2 °F 60.8 °F 83% 30.06 in 10.0 mi East 4.6 mph - N/A   Overcast
10:15 PM 66.2 °F 60.8 °F 83% 30.06 in 10.0 mi ENE 4.6 mph - N/A   Overcast
10:35 PM 66.2 °F 60.8 °F 83% 30.05 in 10.0 mi East 4.6 mph - N/A   Overcast
10:55 PM 66.2 °F 60.8 °F 83% 30.05 in 10.0 mi East 5.8 mph - N/A   Overcast
11:15 PM 66.2 °F 60.8 °F 83% 30.04 in 10.0 mi East 5.8 mph - N/A   Overcast
11:35 PM 66.2 °F 60.8 °F 83% 30.04 in 10.0 mi East 4.6 mph - N/A   Overcast
11:55 PM 66.2 °F 60.8 °F 83% 30.04 in 10.0 mi NE 3.5 mph - N/A   Overcast